Asheville, NC

12:05 PM EDT on October 19, 2019 (GMT -0400)
Asheville Regional

Weather History for KAVL - May, 2019

Change the Weather History Date:

Thursday, May 23, 2019

  Actual Average Record
Temperature  
Mean Temperature 77 °F 65 °F  
Max Temperature 87 °F 76 °F 90 °F (1953)
Min Temperature 67 °F 53 °F 35 °F (2002)
Degree Days  
Heating Degree Days 0 2  
Month to date heating degree days 25 95  
Since 1 July heating degree days 3552 4167  
Cooling Degree Days 12 2  
Month to date cooling degree days 79 30  
Year to date cooling degree days 96 38  
Growing Degree Days 26 (Base 50)    
Moisture  
Dew Point 64 °F    
Average Humidity 66    
Maximum Humidity 90    
Minimum Humidity 42    
Precipitation  
Precipitation T in 0.12 in 2.29 in (1913)
Month to date precipitation 3.35 2.67  
Year to date precipitation 27.14 17.26  
Snow  
Snow 0.00 in 0.00 in 0.00 in ()
Month to date snowfall 0.0 0.0  
Since 1 July snowfall 11.4 9.9  
Snow Depth 0.00 in    
Sea Level Pressure  
Sea Level Pressure 30.22 in    
Wind  
Wind Speed 6 mph (SSE)    
Max Wind Speed 16 mph    
Max Gust Speed 20 mph    
Visibility 9 miles    
Events Rain    
T = Trace of Precipitation, MM = Missing Value Source: NWS Daily Summary

Daily Weather History Graph

Daily Weather History Graph

Search for Another Location

Airport or City:

Astronomy

May. 23, 2019 Rise Set
Actual Time 6:20 AM EDT 8:33 PM EDT
Civil Twilight 5:51 AM EDT 9:02 PM EDT
Nautical Twilight 5:16 AM EDT 9:38 PM EDT
Astronomical Twilight 4:38 AM EDT 10:16 PM EDT
Moon 12:15 AM EDT (5/23) 10:23 AM EDT (5/23)
Length of Visible Light 15h 11m
Length of Day
14h 13m
Waning Gibbous, 77% of the Moon is Illuminated
May 23
Waning Gibbous
May 26
Last Quarter
Jun 3
New
Jun 10
First Quarter
Jun 17
Full

Hourly Weather History & Observations

Time (EDT) Temp. Heat Index Dew Point Humidity Pressure Visibility Wind Dir Wind Speed Gust Speed Precip Events Conditions
12:27 AM 69.1 °F - 64.0 °F 84% 30.29 in 8.0 mi South 3.5 mph - N/A   Overcast
12:54 AM 69.1 °F - 64.0 °F 84% 30.22 in 8.0 mi South 4.6 mph - N/A   Overcast
1:52 AM 69.8 °F - 64.4 °F 83% 30.28 in 8.0 mi South 5.8 mph - 0.00 in   Overcast
1:54 AM 69.1 °F - 64.0 °F 84% 30.21 in 8.0 mi SSW 5.8 mph - 0.00 in   Overcast
2:22 AM 69.1 °F - 64.0 °F 84% 30.27 in 8.0 mi SSE 6.9 mph - N/A   Overcast
2:54 AM 68.0 °F - 64.0 °F 87% 30.19 in 7.0 mi South 4.6 mph - N/A   Overcast
3:23 AM 68.0 °F - 64.0 °F 87% 30.27 in 7.0 mi SSE 6.9 mph - 0.00 in   Overcast
3:42 AM 66.9 °F - 64.0 °F 90% 30.27 in 6.0 mi SSE 4.6 mph - 0.00 in   Overcast
3:52 AM 68.0 °F - 64.4 °F 88% 30.27 in 7.0 mi South 5.8 mph - 0.00 in   Overcast
3:54 AM 68.0 °F - 64.0 °F 87% 30.20 in 6.0 mi South 6.9 mph - 0.00 in Rain Light Rain
4:01 AM 68.0 °F - 64.9 °F 90% 30.27 in 5.0 mi SSE 4.6 mph - 0.00 in Rain Light Rain
4:54 AM 68.0 °F - 64.0 °F 87% 30.22 in 7.0 mi SE 3.5 mph - 0.00 in   Overcast
5:04 AM 68.0 °F - 64.0 °F 87% 30.29 in 8.0 mi ESE 3.5 mph - N/A   Overcast
5:54 AM 69.1 °F - 64.0 °F 84% 30.22 in 10.0 mi SSE 6.9 mph - N/A   Overcast
6:54 AM 69.1 °F - 64.0 °F 84% 30.23 in 10.0 mi South 8.1 mph - N/A   Overcast
7:17 AM 69.1 °F - 64.0 °F 84% 30.31 in 10.0 mi South 8.1 mph - N/A   Overcast
7:54 AM 70.0 °F - 63.0 °F 78% 30.25 in 10.0 mi South 6.9 mph - N/A   Mostly Cloudy
8:54 AM 72.0 °F - 64.0 °F 76% 30.26 in 10.0 mi South 8.1 mph - N/A   Partly Cloudy
9:54 AM 73.9 °F - 64.0 °F 71% 30.27 in 9.0 mi South 5.8 mph - N/A   Partly Cloudy
10:54 AM 77.0 °F - 64.0 °F 64% 30.26 in 10.0 mi Calm Calm - N/A   Scattered Clouds
11:54 AM 79.0 °F - 64.9 °F 62% 30.25 in 10.0 mi South 6.9 mph - N/A   Scattered Clouds
12:54 PM 81.0 °F 83.0 °F 66.0 °F 60% 30.23 in 10.0 mi South 6.9 mph - N/A   Scattered Clouds
1:54 PM 84.0 °F 85.8 °F 64.9 °F 53% 30.20 in 10.0 mi SW 10.4 mph - N/A   Partly Cloudy
2:54 PM 84.9 °F 85.9 °F 63.0 °F 48% 30.17 in 10.0 mi NNW 11.5 mph - N/A   Scattered Clouds
3:54 PM 86.0 °F 86.3 °F 62.1 °F 44% 30.15 in 10.0 mi North 9.2 mph 16.1 mph N/A   Clear
4:54 PM 86.0 °F 86.1 °F 61.0 °F 43% 30.14 in 10.0 mi NNW 8.1 mph - N/A   Clear
5:54 PM 82.0 °F 84.5 °F 66.9 °F 60% 30.14 in 10.0 mi SSE 11.5 mph - N/A   Clear
6:54 PM 81.0 °F 83.3 °F 66.9 °F 62% 30.14 in 10.0 mi SE 5.8 mph - N/A   Clear
7:54 PM 75.9 °F - 66.0 °F 71% 30.14 in 10.0 mi South 5.8 mph - N/A   Clear
8:54 PM 75.9 °F - 66.9 °F 74% 30.14 in 10.0 mi SE 3.5 mph - N/A   Clear
9:54 PM 73.9 °F - 66.0 °F 76% 30.15 in 10.0 mi SE 4.6 mph - N/A   Partly Cloudy
10:54 PM 72.0 °F - 66.0 °F 81% 30.17 in 10.0 mi Calm Calm - N/A   Clear
11:54 PM 70.0 °F - 66.0 °F 87% 30.17 in 10.0 mi Calm Calm - N/A   Clear